User: anonymous   Login
Location: Unspecified
(0.0000°N, 0.0000°E)
Time: 03:05:42
(UTC+00:00)
Language:

Meteor 1-25 - Orbit

View from above orbital plane
View from above orbital plane
View from above satellite
View from above satellite

Ground track
Ground track

The orbit data is extracted from the following two-line orbital elements,

1  8845U 76043A   18116.62090032 +.00000136 +00000-0 +67342-4 0  9990
2  8845 081.2610 331.5976 0040963 093.1960 267.3899 14.11457278305416
Epoch (UTC): 26 April 2018 14:54:05
Eccentricity: 0.0040963
inclination: 81.2610°
perigee height: 825 km
apogee height: 884 km
right ascension of ascending node: 331.5976°
argument of perigee: 93.1960°
revolutions per day: 14.11457278
mean anomaly at epoch: 267.3899°
orbit number at epoch: 30541

The dashed part of the orbit path shows where the satellite is in the earth's shadow,  

DLR